Temperature
5 5 5 5 5 5 5 5 5 5 5 5 5 5 5 5 5 5 6 6 6 6 6 6 6 6 6 6 6 6 6 5 5 5 5 5 5 5
5 4 5 5 5 4 5 5 5 5 4 4 4 5 5 5 5 5 5 6 6 6 6 6 6 6 6 6 5 5 5 5 5 5 5 5 5 5
4 4 4 4 4 4 4 4 4 4 4 4 4 4 4 4 5 5 5 5 5 5 5 5 5 5 5 5 5 5 4 4 4 4 4 4 4 4
4 4 4 4 4 4 4 4 4 4 4 4 4 4 4 4 4 4 4 5 5 5 5 5 5 5 5 5 4 4 4 4 4 4 4 4 4 4
4 4 4 4 4 4 4 4 4 3 3 3 3 3 3 3 3 4 4 4 4 4 4 4 4 4 4 4 4 4 4 4 4 4 4 4 4 3
4 4 4 4 3 3 3 3 3 3 3 3 3 3 3 3 3 3 3 4 4 4 3 4 4 4 3 3 3 3 3 3 3 3 3 3 3 3
3 3 3 3 3 3 3 3 3 3 3 3 3 3 3 2 2 2 3 3 3 3 3 3 3 3 3 3 3 3 3 3 3 3 3 3 3 3
3 3 3 3 3 3 3 3 3 3 3 3 2 2 2 2 2 2 2 2 2 2 2 2 2 2 2 2 2 2 2 2 2 2 2 2 2 2
3 3 3 3 3 3 3 3 3 2 2 2 2 2 2 1 2 2 2 1 1 1 1 1 2 2 1 1 2 2 2 2 2 2 2 2 2 2
3 3 3 3 2 2 2 2 2 2 2 2 2 2 1 1 1 1 1 1 1 1 1 0 1 1 1 1 1 1 1 1 1 1 1 2 2 2
3 3 2 2 2 2 2 2 2 2 1 1 1 1 1 1 1 1 1 1 0 0 -0 -0 -0 0 0 0 0 1 1 1 1 1 1 1 1 1
2 2 2 2 2 2 2 1 1 1 1 1 1 1 1 1 1 1 0 0 -0 -1 -1 -1 -1 -1 -1 -1 -0 -0 0 0 0 1 1 1 1 1
2 2 2 1 1 1 1 1 1 1 1 1 1 0 0 0 0 0 -0 -0 -1 -1 -1 -1 -1 -2 -2 -2 -1 -1 -1 -1 -0 -0 0 0 0 0
1 1 1 1 1 1 1 1 1 1 0 0 0 0 0 -0 -0 -0 -1 -1 -1 -1 -1 -1 -2 -1 -2 -2 -2 -1 -1 -1 -1 -1 -1 -0 -0 -0
1 1 1 1 1 1 1 1 0 0 0 0 -0 -0 -1 -1 -1 -1 -1 -1 -1 -1 -1 -2 -2 -2 -2 -2 -2 -2 -2 -1 -1 -1 -1 -1 -1 -1
1 1 0 0 0 0 0 0 -0 -0 -0 -1 -1 -1 -1 -1 -1 -2 -2 -2 -2 -2 -2 -2 -2 -2 -2 -2 -2 -2 -2 -2 -2 -1 -1 -1 -1 -1
0 0 -0 -0 -0 -0 -0 -1 -1 -1 -1 -1 -1 -1 -1 -1 -2 -2 -2 -2 -2 -2 -2 -2 -2 -2 -2 -2 -2 -2 -2 -2 -2 -2 -2 -1 -1 -1
-0 -0 -1 -1 -1 -1 -1 -1 -1 -1 -1 -2 -2 -2 -2 -2 -2 -2 -2 -2 -2 -2 -2 -2 -2 -2 -2 -2 -2 -2 -2 -2 -2 -2 -2 -2 -2 -1
-1 -1 -1 -1 -1 -1 -1 -1 -2 -2 -2 -2 -2 -2 -2 -2 -2 -2 -3 -3 -3 -3 -3 -3 -3 -3 -3 -3 -3 -3 -3 -2 -2 -2 -2 -2 -2 -1
-1 -1 -1 -1 -1 -2 -2 -2 -2 -2 -2 -2 -2 -2 -2 -2 -3 -3 -3 -3 -3 -3 -3 -3 -3 -3 -3 -3 -3 -3 -3 -3 -2 -2 -2 -2 -2 -2
-1 -1 -2 -2 -2 -2 -2 -2 -2 -2 -2 -2 -3 -3 -3 -3 -3 -3 -3 -3 -3 -3 -3 -3 -3 -3 -3 -3 -3 -3 -3 -3 -3 -3 -2 -2 -2 -2
-2 -2 -2 -2 -2 -2 -2 -3 -3 -3 -3 -3 -3 -3 -3 -3 -3 -3 -3 -3 -3 -3 -4 -4 -4 -3 -3 -3 -3 -3 -3 -3 -3 -3 -3 -2 -2 -3
-2 -2 -3 -3 -3 -3 -3 -3 -3 -3 -3 -3 -3 -3 -3 -3 -3 -3 -3 -4 -4 -4 -4 -4 -4 -4 -3 -3 -3 -3 -3 -3 -3 -2 -2 -2 -2 -2
Wind_Speed
6 7 6 5 5 5 4 5 5 6 6 5 4 4 4 5 7 7 8 8 10 12 12 13 13 13 13 12 12 11 10 10 10 10 11 12 13 14
5 6 5 4 4 4 4 5 5 5 6 5 5 5 5 6 7 8 8 10 11 12 12 11 11 10 9 9 10 10 10 9 10 9 10 11 12 13
5 5 5 4 4 3 3 4 4 4 5 6 5 5 6 6 6 7 7 7 7 8 10 10 9 8 8 8 9 9 9 9 9 9 10 11 11 11
4 4 4 3 4 3 3 3 3 4 4 5 5 5 6 6 7 7 6 6 6 7 9 9 8 7 8 8 8 9 8 8 8 8 9 9 9 9
3 3 3 3 3 3 3 3 3 3 3 4 5 5 5 5 6 6 7 6 6 7 7 7 6 7 8 8 8 7 7 7 8 8 8 8 8 8
2 2 2 2 3 3 3 3 2 2 2 3 4 4 5 5 5 6 6 6 6 6 6 6 6 7 7 8 7 6 6 7 7 8 7 7 7 8
1 2 2 2 2 2 2 2 2 2 2 3 3 4 4 4 5 5 5 6 6 5 5 5 5 5 5 6 6 6 6 7 7 7 7 7 7 7
1 1 2 1 1 1 2 2 3 3 3 3 4 4 5 5 5 5 5 5 5 5 6 6 5 5 5 5 5 6 6 6 6 6 7 7 7 7
1 1 1 1 1 1 2 3 4 4 4 4 4 5 5 5 5 5 5 5 5 6 6 6 5 5 5 4 5 6 5 5 5 5 5 5 5 5
1 1 1 1 1 1 2 2 3 4 4 3 3 4 4 4 5 5 5 5 5 4 5 4 5 5 5 5 5 5 5 5 4 3 3 3 4 4
2 1 0 0 0 1 1 1 2 3 4 4 3 3 4 5 5 4 4 3 4 4 3 3 4 5 5 4 4 5 4 4 3 2 2 3 4 3
2 2 1 1 1 2 1 1 2 3 3 3 3 4 4 4 5 4 4 3 3 3 3 3 4 4 4 3 4 5 5 4 4 3 3 4 4 2
1 1 1 2 2 3 3 2 1 3 3 3 3 3 4 4 4 4 4 3 3 3 3 3 3 3 3 4 5 5 5 4 4 4 4 4 4 3
1 1 1 2 2 3 2 2 2 3 2 2 3 3 3 4 4 4 3 3 3 4 5 4 3 3 3 3 4 4 5 4 4 3 3 4 3 3
1 1 2 2 3 3 3 3 3 2 1 1 2 3 3 4 4 3 3 2 2 3 4 4 3 3 3 3 3 4 4 4 4 3 3 3 3 2
2 2 3 4 3 3 3 2 2 2 1 1 2 2 3 3 3 3 3 3 2 3 3 3 3 2 2 3 3 3 4 3 3 3 3 3 2 2
1 1 1 1 2 2 2 2 2 2 2 2 2 2 3 3 3 3 2 2 2 3 3 3 4 3 2 2 2 2 3 3 3 3 3 3 2 2
2 1 1 1 1 1 1 1 2 1 2 2 2 2 2 2 2 2 2 2 2 3 3 3 3 3 1 1 2 2 3 3 3 3 2 3 3 3
1 1 1 2 2 1 1 1 2 2 2 2 2 2 2 2 2 2 2 2 2 3 3 3 3 3 2 3 3 2 2 4 3 3 3 2 2 3
1 1 1 2 2 2 2 2 1 1 1 1 2 2 2 1 1 1 2 2 2 2 3 3 3 3 2 2 2 3 4 3 3 3 3 3 3 3
2 2 2 2 2 2 2 2 2 2 2 2 2 2 2 1 1 1 1 2 2 2 2 3 3 3 2 2 1 2 3 3 3 2 2 3 3 3
2 2 2 2 2 2 2 2 2 2 2 2 2 2 2 1 1 1 1 1 1 1 2 3 3 2 2 1 2 3 3 4 4 3 2 2 1 1
3 3 3 3 3 2 2 2 3 2 2 2 2 2 1 1 1 1 1 1 1 1 2 2 2 2 2 1 1 2 3 4 3 4 4 5 4 3
Wind_Direction
243 244 241 244 246 249 250 247 254 271 277 289 297 297 301 297 292 286 284 286 287 289 288 287 281 277 276 276 279 275 270 271 271 271 274 274 278 278
242 241 241 246 246 249 247 249 254 259 273 292 300 303 299 294 295 294 292 289 283 283 284 288 287 278 278 278 279 274 270 272 271 267 274 275 279 279
244 241 242 245 247 249 248 245 251 255 263 288 298 302 297 301 305 304 302 302 298 294 292 291 293 293 285 282 284 277 274 272 269 269 274 277 279 277
244 243 243 245 250 254 252 248 255 262 258 275 291 298 300 307 307 307 310 311 307 315 304 299 296 299 295 286 285 280 278 277 274 273 275 279 277 277
241 242 244 244 255 261 263 258 261 273 269 264 284 296 303 310 311 310 312 310 313 317 313 309 306 304 302 293 286 278 276 277 277 276 277 276 279 279
245 252 253 249 256 265 264 258 258 265 267 268 284 296 303 308 306 312 317 321 320 317 318 314 310 304 305 300 286 276 271 272 276 271 268 273 278 282
261 276 282 274 274 270 266 259 259 264 272 278 283 293 298 304 305 309 309 320 321 323 319 317 313 310 307 302 284 280 280 279 275 270 270 274 279 278
280 314 327 330 310 289 286 302 300 274 269 278 283 284 293 299 306 307 312 318 315 331 328 316 314 308 305 303 299 291 285 280 276 273 269 274 273 275
290 313 325 331 325 345 20 5 350 332 302 283 280 290 293 300 303 305 308 308 305 318 321 312 319 317 320 318 318 308 297 292 289 278 273 272 274 281
321 295 282 306 337 12 9 357 349 348 336 322 308 310 314 312 304 299 300 306 306 311 317 301 315 319 325 320 330 319 309 304 302 302 296 293 294 287
351 345 327 282 55 332 337 343 349 354 15 21 5 346 339 334 321 310 305 306 306 312 327 310 315 325 323 326 344 346 328 317 318 332 344 343 337 334
3 0 18 56 23 335 318 318 324 329 339 346 351 351 342 345 338 320 302 295 295 303 332 325 315 329 328 332 341 348 355 6 360 358 357 355 353 4
358 352 14 50 13 354 338 321 308 315 326 334 339 344 346 347 346 343 330 303 291 288 314 323 310 318 306 312 330 344 345 345 346 349 354 360 358 6
350 344 26 44 24 9 4 35 10 342 337 344 344 341 341 340 342 347 345 340 324 305 308 307 291 294 302 308 315 333 339 339 339 337 339 350 356 13
25 48 28 22 17 16 32 18 357 347 353 350 337 330 330 327 326 328 332 341 341 324 318 312 295 291 289 287 300 315 325 330 333 337 340 338 340 355
47 54 41 30 28 21 1 358 2 358 346 332 323 325 326 327 332 336 336 340 345 348 351 347 329 308 303 299 293 302 312 309 323 335 336 333 341 350
28 19 15 10 7 357 354 352 354 348 343 330 324 324 325 331 336 338 338 344 346 345 349 1 1 354 316 300 305 311 323 328 325 329 333 338 343 352
4 13 345 323 308 312 320 330 333 328 324 317 316 316 318 327 336 348 357 358 355 353 347 346 347 345 344 9 333 307 334 339 335 330 332 338 341 350
12 350 305 299 300 299 292 294 305 312 313 309 310 310 313 320 331 344 354 359 356 351 344 341 342 343 355 351 356 358 333 332 332 338 343 340 326 327
351 321 301 296 292 291 290 288 290 295 298 295 297 298 299 299 314 334 349 357 350 345 347 352 353 343 327 319 320 330 329 319 327 335 338 336 331 321
322 307 294 286 282 278 278 277 275 274 278 282 282 284 286 284 302 326 338 349 347 346 346 341 328 312 301 311 332 340 349 348 326 309 330 345 354 360
308 296 288 280 274 267 263 259 263 271 274 268 269 276 277 267 276 295 306 320 332 345 345 341 340 342 350 10 356 342 346 357 7 6 351 344 341 344
299 292 285 276 267 262 259 257 256 260 262 268 271 273 269 270 276 282 298 307 324 342 346 350 360 6 6 6 4 355 355 359 12 19 17 11 2 345
Height
1432 1432 1432 1433 1433 1433 1433 1434 1434 1431 1430 1430 1429 1429 1428 1428 1427 1425 1423 1421 1420 1418 1417 1416 1415 1414 1413 1413 1413 1412 1411 1411 1411 1412 1412 1412 1412 1411
1428 1428 1428 1429 1429 1429 1429 1430 1430 1429 1426 1425 1425 1425 1425 1424 1422 1421 1418 1416 1414 1413 1411 1410 1409 1408 1407 1407 1406 1406 1406 1405 1406 1406 1406 1406 1406 1406
1425 1425 1425 1425 1426 1426 1426 1426 1426 1426 1423 1422 1422 1421 1421 1420 1418 1416 1413 1411 1409 1407 1406 1405 1404 1402 1401 1401 1401 1401 1401 1400 1400 1400 1401 1401 1400 1400
1421 1421 1421 1422 1422 1422 1422 1422 1422 1422 1421 1419 1418 1418 1417 1416 1414 1412 1409 1407 1405 1403 1402 1401 1399 1397 1396 1396 1395 1395 1395 1395 1395 1395 1395 1396 1395 1395
1418 1418 1418 1419 1419 1419 1419 1419 1419 1419 1418 1417 1415 1415 1414 1413 1411 1408 1406 1404 1402 1400 1399 1397 1395 1393 1392 1391 1390 1390 1390 1390 1390 1390 1390 1390 1390 1389
1416 1416 1416 1416 1417 1417 1417 1417 1417 1416 1416 1415 1413 1412 1411 1410 1408 1406 1403 1401 1399 1398 1396 1394 1392 1390 1389 1387 1386 1386 1386 1386 1386 1385 1385 1385 1385 1384
1414 1414 1414 1414 1415 1415 1415 1414 1415 1414 1414 1413 1411 1410 1408 1407 1405 1403 1401 1399 1397 1395 1393 1391 1389 1387 1385 1384 1382 1381 1381 1381 1381 1380 1380 1380 1380 1380
1412 1412 1412 1413 1413 1413 1413 1413 1413 1413 1412 1411 1409 1408 1406 1405 1403 1401 1400 1397 1394 1394 1391 1388 1387 1384 1382 1380 1378 1378 1377 1377 1376 1376 1376 1376 1376 1376
1411 1410 1410 1411 1411 1411 1411 1411 1411 1410 1410 1409 1407 1406 1404 1403 1401 1399 1398 1396 1394 1392 1389 1386 1384 1381 1379 1376 1375 1374 1373 1373 1372 1372 1372 1372 1372 1372
1409 1409 1409 1409 1409 1409 1409 1409 1408 1408 1407 1407 1406 1404 1403 1401 1400 1398 1396 1393 1392 1390 1388 1385 1382 1380 1377 1375 1373 1371 1371 1370 1369 1369 1369 1369 1368 1368
1408 1408 1408 1408 1408 1408 1408 1407 1406 1405 1405 1404 1403 1402 1401 1399 1398 1396 1394 1392 1390 1389 1387 1384 1381 1378 1375 1373 1372 1370 1369 1368 1367 1367 1367 1366 1366 1365
1407 1407 1407 1406 1406 1407 1406 1405 1404 1404 1403 1402 1401 1400 1398 1397 1396 1394 1393 1391 1389 1387 1386 1383 1381 1378 1375 1373 1372 1370 1368 1367 1366 1366 1365 1365 1364 1363
1406 1405 1405 1406 1405 1405 1405 1404 1403 1403 1402 1401 1399 1398 1397 1395 1394 1392 1391 1390 1388 1386 1385 1383 1381 1378 1376 1374 1372 1370 1368 1367 1366 1365 1365 1364 1363 1363
1405 1405 1405 1405 1404 1404 1404 1403 1402 1402 1401 1399 1398 1396 1395 1394 1392 1391 1389 1388 1387 1385 1384 1382 1380 1378 1376 1374 1372 1370 1369 1367 1366 1365 1364 1363 1363 1363
1405 1404 1404 1404 1403 1402 1402 1402 1401 1400 1399 1398 1396 1395 1394 1392 1391 1389 1388 1386 1385 1384 1382 1381 1380 1378 1376 1374 1372 1370 1368 1367 1366 1365 1364 1363 1362 1362
1404 1403 1403 1403 1402 1401 1401 1400 1399 1398 1398 1396 1395 1394 1392 1391 1389 1388 1386 1385 1384 1382 1382 1380 1379 1377 1375 1374 1373 1371 1369 1368 1367 1366 1364 1363 1363 1362
1404 1403 1402 1401 1401 1400 1399 1399 1398 1397 1396 1395 1394 1392 1391 1390 1388 1387 1386 1384 1383 1381 1380 1380 1378 1377 1375 1374 1372 1371 1370 1368 1367 1366 1364 1363 1362 1362
1403 1401 1401 1400 1400 1399 1398 1397 1397 1396 1395 1394 1393 1392 1390 1389 1387 1386 1385 1384 1383 1381 1380 1379 1378 1377 1376 1374 1373 1371 1370 1369 1368 1366 1365 1363 1362 1362
1402 1401 1400 1399 1399 1398 1397 1396 1396 1395 1394 1393 1392 1391 1390 1388 1387 1386 1385 1384 1383 1382 1381 1380 1379 1377 1375 1374 1374 1373 1371 1369 1368 1367 1366 1365 1363 1362
1401 1400 1399 1398 1398 1397 1396 1395 1395 1394 1393 1392 1391 1390 1389 1388 1386 1385 1385 1384 1383 1382 1381 1380 1379 1378 1377 1375 1373 1373 1372 1370 1368 1367 1366 1365 1364 1363
1400 1399 1398 1397 1396 1395 1395 1394 1393 1392 1392 1391 1390 1389 1388 1387 1386 1385 1384 1384 1383 1382 1381 1380 1379 1379 1377 1376 1374 1373 1373 1372 1370 1368 1367 1366 1364 1364
1398 1397 1396 1396 1395 1394 1393 1392 1392 1391 1390 1389 1388 1388 1387 1386 1385 1385 1384 1383 1383 1382 1381 1380 1379 1378 1377 1376 1374 1373 1373 1372 1372 1371 1370 1368 1367 1365
1396 1395 1394 1393 1393 1392 1391 1391 1390 1389 1388 1388 1387 1386 1386 1385 1385 1384 1384 1383 1383 1382 1381 1380 1380 1379 1378 1377 1375 1374 1374 1373 1372 1372 1371 1371 1370 1369